Coetivy Airport

Jump to: basic info | weather | runways | comments

Related pages: nearby airports | nearby navaids | notams | map

Basic information (top)

Codes: FSSC
Location: lon -7.134570, lat 56.278198, elev 10 ft / 3 m msl
Status: small_airport

Weather (top)

Current conditions for Diego Garcia Naval Support Facility 961nm (1,780km) E (rec'd 2014/04/24 07:55Z):

FJDG 240755Z VRB04KT 9999 FEW020 SCT050 BKN250 29/27 A2982 RMK SLP095 P0006 T02900252

Airport forecast for Diego Garcia Naval Support Facility 961nm (1,780km) E (rec'd 2013/04/12 11:21Z):

TAF TAF FJDG 121100Z 1211/1317 17007KT 9999 FEW020 SCT220 QNH2971INS T32/1310Z T26/1223Z

Runways (top)

13/31: 4,593 x 79 ft (1,400 x 24 m) — paved — not lighted — threshold 13 displaced 656 ft (200 m) — threshold 31 displaced 656 ft (200 m)

Latest comments (top)

No comments yet for Coetivy Airport

More... (top)

See also NOTAMs and nearby airports and navaids, or visit the Coetivy Airport page at the main OurAirports website..